Time,TemperatureF,DewpointF,PressureIn,WindDirection,WindDirectionDegrees,WindSpeedMPH,WindSpeedGustMPH,Humidity,HourlyPrecipIn,Conditions,Clouds,dailyrainin,SoftwareType,DateUTC
2013-08-01 00:09:00,72.9,71.7,29.87,South,180,0.0,-999.0,96,-99.99,,,0.00,Acu-Link.com,2013-08-01 04:09:00,
2013-08-01 00:25:00,73.0,71.8,29.86,South,180,4.2,-999.0,96,-99.99,,,0.00,Acu-Link.com,2013-08-01 04:25:00,
2013-08-01 00:40:00,72.5,71.0,29.87,SSE,157,1.7,-999.0,95,-99.99,,,0.00,Acu-Link.com,2013-08-01 04:40:00,
2013-08-01 00:55:00,72.0,70.8,29.86,North,0,0.0,-999.0,96,-99.99,,,0.01,Acu-Link.com,2013-08-01 04:55:00,
2013-08-01 01:10:00,71.2,70.6,29.86,South,180,1.1,-999.0,98,-99.99,,,0.04,Acu-Link.com,2013-08-01 05:10:00,
2013-08-01 01:26:00,70.9,70.3,29.85,ESE,112,0.0,-999.0,98,-99.99,,,0.05,Acu-Link.com,2013-08-01 05:26:00,
2013-08-01 01:41:00,70.5,69.9,29.85,ESE,112,0.0,-999.0,98,-99.99,,,0.06,Acu-Link.com,2013-08-01 05:41:00,
2013-08-01 02:11:00,70.2,69.6,29.83,ESE,112,0.0,-999.0,98,-99.99,,,0.06,Acu-Link.com,2013-08-01 06:11:00,
2013-08-01 02:26:00,70.2,69.9,29.82,ESE,112,0.0,-999.0,99,-99.99,,,0.06,Acu-Link.com,2013-08-01 06:26:00,
2013-08-01 02:42:00,70.2,69.9,29.81,ESE,112,0.0,-999.0,99,-99.99,,,0.06,Acu-Link.com,2013-08-01 06:42:00,
2013-08-01 02:57:00,70.0,69.7,29.81,ESE,112,0.0,-999.0,99,-99.99,,,0.06,Acu-Link.com,2013-08-01 06:57:00,
2013-08-01 03:12:00,70.0,69.7,29.80,ESE,112,0.0,-999.0,99,-99.99,,,0.06,Acu-Link.com,2013-08-01 07:12:00,
2013-08-01 03:27:00,70.0,69.7,29.79,ESE,112,0.0,-999.0,99,-99.99,,,0.06,Acu-Link.com,2013-08-01 07:27:00,
2013-08-01 03:42:00,70.2,69.9,29.79,ESE,112,0.0,-999.0,99,-99.99,,,0.06,Acu-Link.com,2013-08-01 07:42:00,
2013-08-01 04:13:00,70.2,69.9,29.78,ESE,112,0.0,-999.0,99,-99.99,,,0.06,Acu-Link.com,2013-08-01 08:13:00,
2013-08-01 04:28:00,70.2,69.9,29.78,ESE,112,0.0,-999.0,99,-99.99,,,0.06,Acu-Link.com,2013-08-01 08:28:00,
2013-08-01 04:43:00,70.2,69.9,29.78,ESE,112,0.0,-999.0,99,-99.99,,,0.06,Acu-Link.com,2013-08-01 08:43:00,
2013-08-01 05:14:00,70.3,70.0,29.78,ESE,112,0.0,-999.0,99,-99.99,,,0.06,Acu-Link.com,2013-08-01 09:14:00,
2013-08-01 05:29:00,70.3,70.0,29.78,ESE,112,0.0,-999.0,99,-99.99,,,0.06,Acu-Link.com,2013-08-01 09:29:00,
2013-08-01 05:44:00,70.3,70.0,29.78,ESE,112,0.0,-999.0,99,-99.99,,,0.06,Acu-Link.com,2013-08-01 09:44:00,
2013-08-01 05:59:00,70.3,70.0,29.79,ESE,112,0.0,-999.0,99,-99.99,,,0.06,Acu-Link.com,2013-08-01 09:59:00,
2013-08-01 06:14:00,70.5,70.2,29.79,SE,135,0.0,-999.0,99,-99.99,,,0.06,Acu-Link.com,2013-08-01 10:14:00,
2013-08-01 06:30:00,70.5,70.2,29.78,SE,135,0.0,-999.0,99,-99.99,,,0.06,Acu-Link.com,2013-08-01 10:30:00,
2013-08-01 07:00:00,70.7,70.4,29.79,SE,135,0.0,-999.0,99,-99.99,,,0.06,Acu-Link.com,2013-08-01 11:00:00,
2013-08-01 07:46:00,71.6,71.3,29.79,SE,135,0.0,-999.0,99,-99.99,,,0.06,Acu-Link.com,2013-08-01 11:46:00,
2013-08-01 08:31:00,73.2,72.0,29.79,South,180,1.7,-999.0,96,-99.99,,,0.06,Acu-Link.com,2013-08-01 12:31:00,
2013-08-01 08:47:00,73.8,72.3,29.79,South,180,0.0,-999.0,95,-99.99,,,0.06,Acu-Link.com,2013-08-01 12:47:00,
2013-08-01 09:02:00,73.6,72.1,29.80,South,180,2.7,-999.0,95,-99.99,,,0.06,Acu-Link.com,2013-08-01 13:02:00,
2013-08-01 09:17:00,73.8,72.3,29.80,South,180,0.0,-999.0,95,-99.99,,,0.06,Acu-Link.com,2013-08-01 13:17:00,
2013-08-01 09:32:00,74.5,72.3,29.79,South,180,1.7,-999.0,93,-99.99,,,0.06,Acu-Link.com,2013-08-01 13:32:00,
2013-08-01 09:47:00,74.8,72.6,29.80,South,180,0.0,-999.0,93,-99.99,,,0.06,Acu-Link.com,2013-08-01 13:47:00,
2013-08-01 10:03:00,77.4,73.6,29.79,SSW,202,2.7,-999.0,88,-99.99,,,0.06,Acu-Link.com,2013-08-01 14:03:00,
2013-08-01 10:48:00,80.8,74.0,29.79,NW,315,2.2,-999.0,80,-99.99,,,0.06,Acu-Link.com,2013-08-01 14:48:00,
2013-08-01 11:03:00,82.9,73.7,29.78,West,270,0.0,-999.0,74,-99.99,,,0.06,Acu-Link.com,2013-08-01 15:03:00,
2013-08-01 11:19:00,82.6,74.2,29.78,SSW,202,1.1,-999.0,76,-99.99,,,0.06,Acu-Link.com,2013-08-01 15:19:00,
2013-08-01 11:34:00,81.7,72.6,29.78,SSW,202,1.1,-999.0,74,-99.99,,,0.06,Acu-Link.com,2013-08-01 15:34:00,
2013-08-01 12:20:00,81.5,73.6,29.78,South,180,2.2,-999.0,77,-99.99,,,0.06,Acu-Link.com,2013-08-01 16:20:00,
2013-08-01 12:50:00,79.5,72.0,29.77,East,90,2.7,-999.0,78,-99.99,,,0.06,Acu-Link.com,2013-08-01 16:50:00,
2013-08-01 13:51:00,81.0,73.9,29.76,West,270,2.2,-999.0,79,-99.99,,,0.06,Acu-Link.com,2013-08-01 17:51:00,
2013-08-01 14:21:00,81.7,74.5,29.76,ESE,112,0.0,-999.0,79,-99.99,,,0.06,Acu-Link.com,2013-08-01 18:21:00,
2013-08-01 14:52:00,82.8,74.8,29.74,ESE,112,2.2,-999.0,77,-99.99,,,0.06,Acu-Link.com,2013-08-01 18:52:00,
2013-08-01 15:07:00,83.5,74.3,29.74,WNW,292,2.7,-999.0,74,-99.99,,,0.06,Acu-Link.com,2013-08-01 19:07:00,
2013-08-01 15:37:00,83.7,74.5,29.74,SSE,157,1.1,-999.0,74,-99.99,,,0.06,Acu-Link.com,2013-08-01 19:37:00,
2013-08-01 15:52:00,84.7,74.6,29.73,ESE,112,2.2,-999.0,72,-99.99,,,0.06,Acu-Link.com,2013-08-01 19:52:00,
2013-08-01 16:38:00,85.8,75.7,29.71,SE,135,2.2,-999.0,72,-99.99,,,0.06,Acu-Link.com,2013-08-01 20:38:00,
2013-08-01 16:53:00,84.9,75.3,29.71,SE,135,0.0,-999.0,73,-99.99,,,0.06,Acu-Link.com,2013-08-01 20:53:00,
2013-08-01 17:08:00,86.5,75.5,29.72,SSE,157,0.0,-999.0,70,-99.99,,,0.06,Acu-Link.com,2013-08-01 21:08:00,
2013-08-01 17:39:00,83.1,76.6,29.74,NW,315,1.7,-999.0,81,-99.99,,,0.07,Acu-Link.com,2013-08-01 21:39:00,
2013-08-01 17:54:00,76.1,73.9,29.74,SSW,202,3.2,-999.0,93,-99.99,,,0.31,Acu-Link.com,2013-08-01 21:54:00,
2013-08-01 18:09:00,73.9,72.7,29.72,South,180,1.1,-999.0,96,-99.99,,,0.92,Acu-Link.com,2013-08-01 22:09:00,
2013-08-01 18:40:00,78.1,75.9,29.73,SSE,157,1.1,-999.0,93,-99.99,,,0.96,Acu-Link.com,2013-08-01 22:40:00,
2013-08-01 18:55:00,79.3,76.1,29.73,SSW,202,0.0,-999.0,90,-99.99,,,0.96,Acu-Link.com,2013-08-01 22:55:00,
2013-08-01 19:10:00,80.2,76.7,29.73,SSW,202,0.0,-999.0,89,-99.99,,,0.96,Acu-Link.com,2013-08-01 23:10:00,
2013-08-01 19:25:00,82.2,77.9,29.73,SSW,202,0.0,-999.0,87,-99.99,,,0.96,Acu-Link.com,2013-08-01 23:25:00,
2013-08-01 19:41:00,80.2,76.3,29.73,SSW,202,0.0,-999.0,88,-99.99,,,0.96,Acu-Link.com,2013-08-01 23:41:00,
2013-08-01 19:56:00,79.2,76.0,29.75,NNW,337,1.7,-999.0,90,-99.99,,,0.96,Acu-Link.com,2013-08-01 23:56:00,
2013-08-01 20:41:00,75.0,73.5,29.76,WSW,247,0.0,-999.0,95,-99.99,,,0.96,Acu-Link.com,2013-08-02 00:41:00,
2013-08-01 20:57:00,74.5,73.9,29.77,WSW,247,0.0,-999.0,98,-99.99,,,0.96,Acu-Link.com,2013-08-02 00:57:00,
2013-08-01 21:12:00,73.8,72.9,29.77,WSW,247,0.0,-999.0,97,-99.99,,,0.96,Acu-Link.com,2013-08-02 01:12:00,
2013-08-01 21:27:00,73.8,73.5,29.76,WSW,247,0.0,-999.0,99,-99.99,,,0.96,Acu-Link.com,2013-08-02 01:27:00,
2013-08-01 21:42:00,73.0,72.4,29.77,WSW,247,0.0,-999.0,98,-99.99,,,0.96,Acu-Link.com,2013-08-02 01:42:00,
2013-08-01 22:13:00,72.5,72.2,29.77,WSW,247,0.0,-999.0,99,-99.99,,,0.96,Acu-Link.com,2013-08-02 02:13:00,
2013-08-01 22:28:00,72.1,71.8,29.77,WSW,247,0.0,-999.0,99,-99.99,,,0.96,Acu-Link.com,2013-08-02 02:28:00,
2013-08-01 22:43:00,72.0,71.7,29.78,WSW,247,0.0,-999.0,99,-99.99,,,0.96,Acu-Link.com,2013-08-02 02:43:00,
2013-08-01 23:13:00,71.6,71.3,29.78,WSW,247,0.0,-999.0,99,-99.99,,,0.96,Acu-Link.com,2013-08-02 03:13:00,
2013-08-01 23:29:00,71.2,70.9,29.79,WSW,247,0.0,-999.0,99,-99.99,,,0.96,Acu-Link.com,2013-08-02 03:29:00,
2013-08-01 23:44:00,71.2,70.9,29.79,WSW,247,0.0,-999.0,99,-99.99,,,0.96,Acu-Link.com,2013-08-02 03:44:00,